Tracking 28790 objects as of 18-Apr-2024
HD Live streaming from Space Station
objects crossing your sky now

COSMOS 886 DEB

Track COSMOS 886 DEB now!
10-day predictions


NORAD ID: 13507
Int'l Code: 1976-126BK
Perigee: 1,012.3 km
Apogee: 2,434.3 km
Inclination: 65.8 °
Period: 120.8 minutes
Semi major axis: 8094 km
RCS: 0.026 m2 (small)
Launch date: December 27, 1976
Source: Commonwealth of Independent States (former USSR) (CIS)
Launch site: TYURATAM MISSILE AND SPACE COMPLEX (TTMTR)

Note: This is SATELLITE DEBRIS
Your satellite tracking list
Your tracking list is empty




NASA's NSSDC Master Catalog

Two Line Element Set (TLE):
1 13507U 76126BK  24108.61547753  .00000065  00000-0  52080-3 0  9990
2 13507  65.7545 155.8499 0878440 176.8714 273.6064 11.92157096866735
Source of the keplerian elements: AFSPC